Regional Weather Roundup
Issued by NWS

Home | Current Version | Previous Version | Graphics & Text | Print | Product List | Glossary On
Versions: 1 2 3 4 5 6 7 8 9 10 11 12 13 14 15 16 17 18 19 20 21 22 23 24 25 26 27
000
ASUS45 KBOU 290307
RWRCO

WEATHER ROUNDUP FOR COLORADO
NATIONAL WEATHER SERVICE DENVER/BOULDER CO
900 PM MDT THU APR 28 2016

NOTE: "FAIR" INDICATES FEW OR NO CLOUDS BELOW 12000 FEET WITH NO
SIGNIFICANT WEATHER AND/OR OBSTRUCTIONS TO VISIBILITY.

COZ001>005-013-030-031-290400-
...NORTHWEST COLORADO...

CITY           SKY/WX    TMP DP  RH WIND       PRES   REMARKS
CRAIG          FAIR      37  33  85 E3        29.91R
HAYDEN         FAIR      36  30  80 SE3       29.92R
MEEKER         CLOUDY    41  35  79 NW7       29.89R
MOUNT WERNER   NOT AVBL
STEAMBOAT SPGS FAIR      33  32  94 CALM      29.92R
WALDEN         FAIR      32  28  86 CALM      29.97R
$$

COZ006>008-011-290400-
...WEST CENTRAL VALLEYS...

CITY           SKY/WX    TMP DP  RH WIND       PRES   REMARKS
GRAND JUNCTION MOCLDY    45  38  76 E7        29.80F
MONTROSE       CLOUDY    45  35  68 NE7       29.85R
EAGLE          CLOUDY    43  37  81 W6        29.89R
RIFLE          MOCLDY    49  35  58 CALM      29.82R
DELTA          NOT AVBL
NUCLA          NOT AVBL
$$

COZ017>023-064>068-290400-
...SOUTHWEST COLORADO...

CITY           SKY/WX    TMP DP  RH WIND       PRES   REMARKS
DURANGO        FAIR      43  24  47 N7        29.83R
CORTEZ         FAIR      42  35  76 SW5       29.83R
PAGOSA SPRINGS CLOUDY    48  19  31 W13G23    29.85R
TELLURIDE      CLOUDY    35  32  90 CALM      29.92R
WOLF CREEK PAS NOT AVBL
$$

COZ009-010-012-014-032>034-037-058>063-290400-
...CENTRAL COLORADO...

CITY           SKY/WX    TMP DP  RH WIND       PRES   REMARKS
ASPEN          MOCLDY    39  32  76 CALM      29.87R
BUENA VISTA    LGT SNOW  32  31  96 SE3       29.98R
COPPER MTN     NOT AVBL
BERTHOUD PASS  FAIR      18   9  68 SE10      30.01R WCI   6
COTTONWOOD PAS SNOW      32  30  93 E3        29.99R VSB 1/2
GUNNISON       FAIR      39  30  70 NW6       29.91R
KREMMLING      CLOUDY    37  34  87 NE6       29.94R
LEADVILLE      CLOUDY    26  26 100 CALM      29.96R FOG
SALIDA         CLOUDY    33  32  95 E6        30.06R WCI  28
SUNLIGHT       LGT SNOW  32  30  93 CALM      29.98R
WILKERSON PASS SNOW      27  23  86 S8G16     30.04S VSB 1/2 WCI  18
$$

COZ069>075-290400-
...SAN LUIS VALLEY/SANGRE DE CRISTO MOUNTAINS...

CITY           SKY/WX    TMP DP  RH WIND       PRES   REMARKS
ALAMOSA        CLOUDY    41  34  76 NE13      29.86R
LA VETA PASS   LGT SNOW  27  25  93 MISG      30.00R VSB 1
SAGUACHE       DRIZZLE   36  34  93 NE3       29.92S
$$

COZ035-036-038>040-290400-
...NORTHERN COLORADO FRONT RANGE...

CITY           SKY/WX    TMP DP  RH WIND       PRES   REMARKS
DENVER INTL AP CLOUDY    38  32  79 E10       30.03R
DMNS CITY PARK   N/A     38  36  90 N6G13     30.03R
AURORA         NOT AVBL
FRONT RANGE AP CLOUDY    37  34  87 E7        30.03R
ERIE MUNI ARPT LGT RAIN  38  36  95 NE7       30.04R
BOULDER MUN AP DRIZZLE   37  36  93 NE5       30.03S
CENTENNIAL     CLOUDY    37  34  89 N3        30.02R
BROOMFIELD     DRIZZLE   37  36  93 N7        30.04R
FORT COLLINS   CLOUDY    37  34  87 E8        30.06R
LONGMONT       CLOUDY    40  37  87 NE8       30.06S
$$

COZ041-046-047-076>085-087-088-290400-
...PIKES PEAK/PALMER DIVIDE AND SOUTHERN FOOTHILLS...

CITY           SKY/WX    TMP DP  RH WIND       PRES   REMARKS
COLO. SPRINGS  LGT RAIN  37  32  82 NW5       30.02R
A. F. ACADEMY  NOT AVBL
SCHRIEVER AFB  NOT AVBL
ELLICOTT       NOT AVBL
FALCON         CLOUDY    35  33  91 SE5       30.02R WCI  31
FORT CARSON    NOT AVBL
LIMON          FAIR      37  33  85 NE13      30.02R
MONUMENT HILL  CLOUDY    32  30  93 CALM      30.02R
TRINIDAD       HVY RAIN  37  34  89 NW13      29.97R FOG
$$

COZ042>045-048>051-090-091-290400-
...NORTHEAST COLORADO...

CITY           SKY/WX    TMP DP  RH WIND       PRES   REMARKS
GREELEY ARPT   CLOUDY    37  36  93 NE7       30.07R
AKRON          CLOUDY    38  33  82 NE6       30.06R
BURLINGTON     CLOUDY    44  36  73 NE15      30.04R
WRAY           NOT AVBL
STERLING       CLOUDY    41  34  75 NE3       30.07R
HOLYOKE        NOT AVBL
FORT MORGAN    CLOUDY    38  34  84 E7        30.08R
$$

COZ086-089-092>099-290400-
...SOUTHEAST COLORADO...

CITY           SKY/WX    TMP DP  RH WIND       PRES   REMARKS
PUEBLO         CLOUDY    42  37  82 NW6       29.99R
LA JUNTA       LGT RAIN  48  36  63 E14       29.97R
LAMAR          CLOUDY    50  35  56 E12       29.98R
SPRINGFIELD      N/A     47  35  63 NE23G30   29.94R
$$




USA.gov is the U.S. government's official web portal to all federal, state and local government web resources and services.